Time,TemperatureF,DewpointF,PressureIn,WindDirection,WindDirectionDegrees,WindSpeedMPH,WindSpeedGustMPH,Humidity,HourlyPrecipIn,Conditions,Clouds,dailyrainin,SoftwareType,DateUTC
2013-02-24 02:52:00,43.0,38.0,30.37,South,183,4.0,7.0,83,0.00,,,0.00,,2013-02-24 10:52:00,
2013-02-24 03:01:00,42.0,37.0,30.37,South,183,2.0,6.0,83,0.00,,,0.00,,2013-02-24 11:01:00,
2013-02-24 03:11:00,42.0,37.0,30.37,South,183,2.0,6.0,83,0.00,,,0.00,,2013-02-24 11:11:00,
2013-02-24 03:21:00,42.0,37.0,30.36,South,184,5.0,7.0,83,0.00,,,0.00,,2013-02-24 11:21:00,
2013-02-24 03:32:00,42.0,36.0,30.36,South,187,3.0,6.0,80,0.00,,,0.00,,2013-02-24 11:32:00,
2013-02-24 03:41:00,42.0,36.0,30.36,South,187,3.0,6.0,80,0.00,,,0.00,,2013-02-24 11:41:00,
2013-02-24 03:52:00,43.0,39.0,30.36,SSE,148,7.0,12.0,85,0.00,,,0.00,,2013-02-24 11:52:00,
2013-02-24 04:01:00,42.0,38.0,30.36,South,180,4.0,9.0,87,0.00,,,0.00,,2013-02-24 12:01:00,
2013-02-24 04:11:00,42.0,38.0,30.36,South,180,4.0,9.0,87,0.00,,,0.00,,2013-02-24 12:11:00,
2013-02-24 04:21:00,41.0,39.0,30.35,South,174,2.0,7.0,92,0.00,,,0.00,,2013-02-24 12:21:00,
2013-02-24 04:32:00,41.0,37.0,30.35,South,173,2.0,8.0,87,0.00,,,0.00,,2013-02-24 12:32:00,
2013-02-24 04:45:00,41.0,37.0,30.35,South,173,2.0,8.0,87,0.00,,,0.00,,2013-02-24 12:45:00,
2013-02-24 04:55:00,41.0,37.0,30.35,South,175,0.0,5.0,87,0.00,,,0.00,,2013-02-24 12:55:00,
2013-02-24 05:14:00,41.0,37.0,30.34,SSE,163,3.0,6.0,87,0.00,,,0.00,,2013-02-24 13:14:00,
2013-02-24 05:23:00,41.0,38.0,30.33,South,169,3.0,10.0,88,0.00,,,0.00,,2013-02-24 13:23:00,
2013-02-24 05:32:00,41.0,38.0,30.33,South,184,7.0,11.0,88,0.00,,,0.00,,2013-02-24 13:32:00,
2013-02-24 05:42:00,41.0,38.0,30.33,South,184,7.0,11.0,88,0.00,,,0.00,,2013-02-24 13:42:00,
2013-02-24 05:51:00,40.0,37.0,30.33,SW,216,3.0,12.0,89,0.00,,,0.00,,2013-02-24 13:51:00,
2013-02-24 06:02:00,40.0,37.0,30.33,SSW,194,4.0,11.0,88,0.00,,,0.00,,2013-02-24 14:02:00,
2013-02-24 06:12:00,40.0,37.0,30.33,SSW,194,4.0,11.0,88,0.00,,,0.00,,2013-02-24 14:12:00,
2013-02-24 06:22:00,40.0,37.0,30.32,West,277,4.0,9.0,88,0.00,,,0.00,,2013-02-24 14:22:00,
2013-02-24 06:32:00,40.0,37.0,30.32,South,189,4.0,10.0,88,0.00,,,0.00,,2013-02-24 14:32:00,
2013-02-24 06:42:00,40.0,37.0,30.32,South,189,4.0,10.0,88,0.00,,,0.00,,2013-02-24 14:42:00,
2013-02-24 06:52:00,40.0,37.0,30.32,South,172,4.0,10.0,88,0.00,,,0.00,,2013-02-24 14:52:00,
2013-02-24 07:02:00,41.0,38.0,30.31,SSW,194,4.0,10.0,88,0.00,,,0.00,,2013-02-24 15:02:00,
2013-02-24 07:11:00,41.0,38.0,30.31,SSW,194,4.0,10.0,88,0.00,,,0.00,,2013-02-24 15:11:00,
2013-02-24 07:22:00,41.0,38.0,30.31,South,187,6.0,9.0,88,0.00,,,0.00,,2013-02-24 15:22:00,
2013-02-24 07:31:00,41.0,38.0,30.31,South,181,9.0,13.0,88,0.00,,,0.00,,2013-02-24 15:31:00,
2013-02-24 07:41:00,41.0,38.0,30.31,South,181,9.0,13.0,88,0.00,,,0.00,,2013-02-24 15:41:00,
2013-02-24 07:52:00,41.0,37.0,30.31,South,191,8.0,13.0,87,0.00,,,0.00,,2013-02-24 15:52:00,
2013-02-24 08:01:00,41.0,37.0,30.31,South,170,8.0,13.0,87,0.00,,,0.00,,2013-02-24 16:01:00,
2013-02-24 08:11:00,41.0,37.0,30.31,South,170,8.0,13.0,87,0.00,,,0.00,,2013-02-24 16:11:00,
2013-02-24 08:21:00,41.0,37.0,30.31,SSE,166,7.0,15.0,87,0.00,,,0.00,,2013-02-24 16:21:00,
2013-02-24 08:31:00,41.0,37.0,30.30,South,184,5.0,12.0,87,0.00,,,0.00,,2013-02-24 16:31:00,
2013-02-24 08:41:00,41.0,37.0,30.30,South,184,5.0,12.0,87,0.00,,,0.00,,2013-02-24 16:41:00,
2013-02-24 08:52:00,42.0,38.0,30.30,South,180,7.0,12.0,87,0.00,,,0.00,,2013-02-24 16:52:00,
2013-02-24 09:01:00,42.0,38.0,30.29,SSE,167,6.0,12.0,87,0.00,,,0.00,,2013-02-24 17:01:00,
2013-02-24 09:11:00,42.0,38.0,30.29,SSE,167,6.0,12.0,87,0.00,,,0.00,,2013-02-24 17:11:00,
2013-02-24 09:21:00,42.0,38.0,30.29,SSW,192,6.0,14.0,85,0.00,,,0.00,,2013-02-24 17:21:00,
2013-02-24 09:31:00,42.0,38.0,30.29,South,173,10.0,17.0,85,0.00,,,0.00,,2013-02-24 17:31:00,
2013-02-24 09:41:00,42.0,38.0,30.29,South,173,10.0,17.0,85,0.00,,,0.00,,2013-02-24 17:41:00,
2013-02-24 09:52:00,43.0,38.0,30.29,South,183,10.0,18.0,84,0.00,,,0.00,,2013-02-24 17:52:00,
2013-02-24 10:01:00,43.0,38.0,30.28,South,169,12.0,16.0,83,0.00,,,0.00,,2013-02-24 18:01:00,
2013-02-24 10:11:00,43.0,38.0,30.28,South,169,12.0,16.0,83,0.00,,,0.00,,2013-02-24 18:11:00,
2013-02-24 10:21:00,43.0,38.0,30.28,South,180,10.0,19.0,82,0.00,,,0.00,,2013-02-24 18:21:00,
2013-02-24 10:31:00,44.0,39.0,30.27,South,176,14.0,20.0,81,0.00,,,0.00,,2013-02-24 18:31:00,
2013-02-24 10:41:00,44.0,39.0,30.27,South,176,14.0,20.0,81,0.00,,,0.00,,2013-02-24 18:41:00,
2013-02-24 10:51:00,44.0,38.0,30.27,South,172,12.0,20.0,80,0.00,,,0.00,,2013-02-24 18:51:00,
2013-02-24 11:01:00,44.0,38.0,30.27,South,184,11.0,20.0,80,0.00,,,0.00,,2013-02-24 19:01:00,
2013-02-24 11:11:00,44.0,38.0,30.27,South,184,11.0,20.0,80,0.00,,,0.00,,2013-02-24 19:11:00,
2013-02-24 11:21:00,44.0,38.0,30.26,ENE,65,9.0,19.0,80,0.00,,,0.00,,2013-02-24 19:21:00,
2013-02-24 11:32:00,44.0,38.0,30.25,South,181,9.0,16.0,80,0.00,,,0.00,,2013-02-24 19:32:00,
2013-02-24 11:41:00,44.0,38.0,30.25,South,181,9.0,16.0,80,0.00,,,0.00,,2013-02-24 19:41:00,
2013-02-24 11:51:00,45.0,39.0,30.24,South,189,11.0,18.0,79,0.00,,,0.00,,2013-02-24 19:51:00,
2013-02-24 12:02:00,45.0,39.0,30.24,South,182,12.0,22.0,79,0.00,,,0.00,,2013-02-24 20:02:00,
2013-02-24 12:11:00,45.0,39.0,30.24,South,182,12.0,22.0,79,0.00,,,0.00,,2013-02-24 20:11:00,
2013-02-24 12:21:00,45.0,39.0,30.24,South,188,11.0,18.0,79,0.00,,,0.00,,2013-02-24 20:21:00,
2013-02-24 12:31:00,45.0,39.0,30.23,WNW,302,12.0,22.0,78,0.00,,,0.00,,2013-02-24 20:31:00,
2013-02-24 12:41:00,45.0,39.0,30.23,WNW,302,12.0,22.0,78,0.00,,,0.00,,2013-02-24 20:41:00,
2013-02-24 12:52:00,45.0,38.0,30.23,SSE,162,11.0,18.0,77,0.00,,,0.00,,2013-02-24 20:52:00,
2013-02-24 13:01:00,45.0,39.0,30.22,South,180,11.0,19.0,78,0.00,,,0.00,,2013-02-24 21:01:00,
2013-02-24 13:11:00,45.0,39.0,30.22,South,180,11.0,19.0,78,0.00,,,0.00,,2013-02-24 21:11:00,
2013-02-24 13:21:00,46.0,40.0,30.22,South,176,14.0,23.0,78,0.00,,,0.00,,2013-02-24 21:21:00,
2013-02-24 13:32:00,45.0,38.0,30.21,South,170,15.0,24.0,77,0.00,,,0.00,,2013-02-24 21:32:00,
2013-02-24 13:41:00,45.0,38.0,30.21,South,170,15.0,24.0,77,0.00,,,0.00,,2013-02-24 21:41:00,
2013-02-24 13:52:00,45.0,39.0,30.20,South,180,17.0,26.0,79,0.00,,,0.00,,2013-02-24 21:52:00,
2013-02-24 14:01:00,45.0,39.0,30.18,South,181,20.0,26.0,79,0.00,,,0.00,,2013-02-24 22:01:00,
2013-02-24 14:11:00,45.0,39.0,30.18,South,181,20.0,26.0,79,0.00,,,0.00,,2013-02-24 22:11:00,
2013-02-24 14:21:00,45.0,39.0,30.19,West,267,17.0,26.0,80,0.00,,,0.00,,2013-02-24 22:21:00,
2013-02-24 14:31:00,45.0,39.0,30.17,South,187,15.0,26.0,80,0.00,,,0.00,,2013-02-24 22:31:00,
2013-02-24 14:41:00,45.0,39.0,30.17,South,187,15.0,26.0,80,0.00,,,0.00,,2013-02-24 22:41:00,
2013-02-24 14:51:00,45.0,39.0,30.16,SE,143,18.0,23.0,80,0.00,,,0.00,,2013-02-24 22:51:00,
2013-02-24 15:01:00,45.0,39.0,30.16,ESE,121,17.0,23.0,80,0.00,,,0.00,,2013-02-24 23:01:00,
2013-02-24 15:11:00,45.0,39.0,30.16,ESE,121,17.0,23.0,80,0.00,,,0.00,,2013-02-24 23:11:00,
2013-02-24 15:21:00,45.0,40.0,30.15,SSE,153,17.0,29.0,82,0.00,,,0.00,,2013-02-24 23:21:00,
2013-02-24 15:31:00,45.0,40.0,30.14,South,191,17.0,26.0,81,0.00,,,0.00,,2013-02-24 23:31:00,
2013-02-24 15:41:00,45.0,40.0,30.14,South,191,17.0,26.0,81,0.00,,,0.00,,2013-02-24 23:41:00,
2013-02-24 15:52:00,45.0,39.0,30.13,South,182,17.0,25.0,80,0.00,,,0.00,,2013-02-24 23:52:00,
2013-02-24 16:01:00,45.0,39.0,30.13,SSE,155,16.0,27.0,79,0.00,,,0.00,,2013-02-25 00:01:00,
2013-02-24 16:11:00,45.0,39.0,30.13,SSE,155,16.0,27.0,79,0.00,,,0.00,,2013-02-25 00:11:00,
2013-02-24 16:21:00,46.0,40.0,30.13,South,179,16.0,27.0,78,0.00,,,0.00,,2013-02-25 00:21:00,
2013-02-24 16:31:00,46.0,40.0,30.12,SSW,206,17.0,24.0,78,0.00,,,0.00,,2013-02-25 00:31:00,
2013-02-24 16:41:00,46.0,40.0,30.12,SSW,206,17.0,24.0,78,0.00,,,0.00,,2013-02-25 00:41:00,
2013-02-24 16:51:00,46.0,40.0,30.11,South,169,15.0,24.0,78,0.00,,,0.00,,2013-02-25 00:51:00,
2013-02-24 17:01:00,46.0,40.0,30.11,South,184,15.0,24.0,78,0.00,,,0.00,,2013-02-25 01:01:00,
2013-02-24 17:11:00,46.0,40.0,30.11,South,184,15.0,24.0,78,0.00,,,0.00,,2013-02-25 01:11:00,
2013-02-24 17:21:00,46.0,40.0,30.10,South,182,15.0,24.0,79,0.00,,,0.00,,2013-02-25 01:21:00,
2013-02-24 17:31:00,46.0,40.0,30.10,South,182,15.0,24.0,79,0.00,,,0.00,,2013-02-25 01:31:00,
2013-02-24 17:42:00,46.0,40.0,30.10,South,182,15.0,24.0,79,0.00,,,0.00,,2013-02-25 01:42:00,
2013-02-24 17:51:00,45.0,39.0,30.07,South,180,18.0,30.0,79,0.00,,,0.00,,2013-02-25 01:51:00,
2013-02-24 18:01:00,45.0,39.0,30.06,South,179,19.0,27.0,80,0.00,,,0.00,,2013-02-25 02:01:00,
2013-02-24 18:11:00,45.0,39.0,30.06,South,179,19.0,27.0,80,0.00,,,0.00,,2013-02-25 02:11:00,
2013-02-24 18:21:00,45.0,39.0,30.05,South,175,21.0,29.0,80,0.00,,,0.00,,2013-02-25 02:21:00,
2013-02-24 18:31:00,45.0,40.0,30.05,SSW,194,18.0,31.0,81,0.00,,,0.00,,2013-02-25 02:31:00,
2013-02-24 18:41:00,45.0,40.0,30.05,SSW,194,18.0,31.0,81,0.00,,,0.00,,2013-02-25 02:41:00,
2013-02-24 18:52:00,45.0,40.0,30.03,South,176,20.0,31.0,81,0.00,,,0.00,,2013-02-25 02:52:00,
2013-02-24 19:01:00,45.0,39.0,30.02,South,177,19.0,32.0,80,0.00,,,0.00,,2013-02-25 03:01:00,
2013-02-24 19:11:00,45.0,39.0,30.02,South,177,19.0,32.0,80,0.00,,,0.00,,2013-02-25 03:11:00,
2013-02-24 19:21:00,45.0,39.0,30.01,South,174,20.0,32.0,80,0.00,,,0.00,,2013-02-25 03:21:00,
2013-02-24 19:31:00,46.0,40.0,30.00,South,177,21.0,32.0,80,0.00,,,0.00,,2013-02-25 03:31:00,
2013-02-24 19:41:00,46.0,40.0,30.00,South,177,21.0,32.0,80,0.00,,,0.00,,2013-02-25 03:41:00,
2013-02-24 19:51:00,46.0,41.0,30.01,South,177,22.0,28.0,81,0.00,,,0.00,,2013-02-25 03:51:00,
2013-02-24 20:01:00,46.0,40.0,29.99,South,181,20.0,31.0,80,0.00,,,0.00,,2013-02-25 04:01:00,
2013-02-24 20:11:00,46.0,40.0,29.99,South,181,20.0,31.0,80,0.00,,,0.00,,2013-02-25 04:11:00,
2013-02-24 20:21:00,46.0,40.0,29.98,South,185,21.0,30.0,78,0.00,,,0.00,,2013-02-25 04:21:00,
2013-02-24 20:31:00,46.0,40.0,29.96,SSE,149,20.0,30.0,78,0.00,,,0.00,,2013-02-25 04:31:00,
2013-02-24 20:41:00,46.0,40.0,29.96,SSE,149,20.0,30.0,78,0.00,,,0.00,,2013-02-25 04:41:00,
2013-02-24 20:51:00,46.0,40.0,29.95,SSE,164,24.0,34.0,78,0.00,,,0.00,,2013-02-25 04:51:00,
2013-02-24 21:01:00,46.0,40.0,29.94,South,188,22.0,30.0,78,0.00,,,0.00,,2013-02-25 05:01:00,
2013-02-24 21:11:00,46.0,40.0,29.94,South,188,22.0,30.0,78,0.00,,,0.00,,2013-02-25 05:11:00,
2013-02-24 21:22:00,46.0,40.0,29.93,SSE,161,22.0,32.0,79,0.00,,,0.00,,2013-02-25 05:22:00,
2013-02-24 21:31:00,45.0,39.0,29.93,South,186,25.0,33.0,80,0.00,,,0.00,,2013-02-25 05:31:00,
2013-02-24 21:41:00,45.0,39.0,29.93,South,186,25.0,33.0,80,0.00,,,0.00,,2013-02-25 05:41:00,
2013-02-24 21:52:00,45.0,39.0,29.92,South,169,24.0,32.0,79,0.00,,,0.00,,2013-02-25 05:52:00,
2013-02-24 22:02:00,45.0,39.0,29.91,South,182,25.0,36.0,80,0.00,,,0.00,,2013-02-25 06:02:00,
2013-02-24 22:11:00,45.0,39.0,29.91,South,182,25.0,36.0,80,0.00,,,0.00,,2013-02-25 06:11:00,
2013-02-24 22:21:00,45.0,39.0,29.91,South,187,23.0,34.0,80,0.00,,,0.00,,2013-02-25 06:21:00,
2013-02-24 22:31:00,45.0,40.0,29.91,SSE,166,26.0,38.0,81,0.00,,,0.00,,2013-02-25 06:31:00,
2013-02-24 22:41:00,45.0,40.0,29.91,SSE,166,26.0,38.0,81,0.00,,,0.00,,2013-02-25 06:41:00,
2013-02-24 22:51:00,45.0,40.0,29.90,South,190,25.0,35.0,81,0.00,,,0.00,,2013-02-25 06:51:00,
2013-02-24 23:01:00,45.0,40.0,29.90,South,184,26.0,33.0,82,0.00,,,0.00,,2013-02-25 07:01:00,
2013-02-24 23:11:00,44.0,39.0,29.88,South,182,20.0,34.0,82,0.00,,,0.00,,2013-02-25 07:11:00,
2013-02-24 23:21:00,44.0,39.0,29.88,South,182,20.0,34.0,82,0.00,,,0.00,,2013-02-25 07:21:00,
2013-02-24 23:31:00,44.0,39.0,29.87,SSE,147,23.0,36.0,83,0.00,,,0.00,,2013-02-25 07:31:00,
2013-02-24 23:41:00,44.0,39.0,29.87,SSE,147,23.0,36.0,83,0.00,,,0.00,,2013-02-25 07:41:00,
2013-02-24 23:51:00,44.0,39.0,29.87,SSW,192,20.0,34.0,83,0.00,,,0.00,,2013-02-25 07:51:00,